TimeCDT,TemperatureF,Dew PointF,Humidity,Sea Level PressureIn,VisibilityMPH,Wind Direction,Wind SpeedMPH,Gust SpeedMPH,PrecipitationIn,Events,Conditions,WindDirDegrees,DateUTC
12:15 AM,52.5,29.5,41,30.02,10.0,Calm,Calm,-,N/A,,Clear,0,2011-10-30 05:15:00
12:35 AM,51.1,29.1,43,30.00,10.0,Calm,Calm,-,N/A,,Clear,0,2011-10-30 05:35:00
12:55 AM,49.3,29.3,46,30.00,10.0,Calm,Calm,-,N/A,,Clear,0,2011-10-30 05:55:00
1:15 AM,48.7,29.3,47,30.01,10.0,Calm,Calm,-,N/A,,Clear,0,2011-10-30 06:15:00
1:35 AM,47.3,28.4,48,30.02,10.0,NNE,3.5,-,N/A,,Clear,20,2011-10-30 06:35:00
1:55 AM,47.8,28.9,48,30.01,10.0,Calm,Calm,-,N/A,,Clear,0,2011-10-30 06:55:00
2:15 AM,46.6,28.4,49,30.02,10.0,Calm,Calm,-,N/A,,Clear,0,2011-10-30 07:15:00
2:55 AM,45.3,28.0,51,30.02,10.0,SE,4.6,-,N/A,,Clear,130,2011-10-30 07:55:00
3:15 AM,44.1,27.3,52,30.03,10.0,SSW,3.5,-,N/A,,Clear,210,2011-10-30 08:15:00
3:35 AM,43.2,26.6,52,30.02,10.0,SW,3.5,-,N/A,,Clear,220,2011-10-30 08:35:00
3:55 AM,43.3,26.8,52,30.02,10.0,West,6.9,-,N/A,,Clear,280,2011-10-30 08:55:00
4:15 AM,42.6,26.8,54,30.02,10.0,Calm,Calm,-,N/A,,Clear,0,2011-10-30 09:15:00
4:35 AM,42.8,27.0,54,30.02,10.0,Calm,Calm,-,N/A,,Clear,0,2011-10-30 09:35:00
4:55 AM,43.2,26.6,52,30.02,10.0,Calm,Calm,-,N/A,,Clear,0,2011-10-30 09:55:00
5:35 AM,43.2,27.7,54,30.03,10.0,NNW,6.9,-,N/A,,Clear,340,2011-10-30 10:35:00
5:55 AM,43.0,27.7,55,30.03,10.0,North,3.5,-,N/A,,Clear,350,2011-10-30 10:55:00
6:15 AM,42.3,27.3,56,30.03,10.0,Calm,Calm,-,N/A,,Clear,0,2011-10-30 11:15:00
6:35 AM,40.6,25.9,56,30.04,10.0,Calm,Calm,-,N/A,,Clear,0,2011-10-30 11:35:00
6:55 AM,40.5,26.8,58,30.04,10.0,Calm,Calm,-,N/A,,Clear,0,2011-10-30 11:55:00
7:15 AM,41.2,27.9,59,30.06,10.0,North,5.8,-,N/A,,Clear,350,2011-10-30 12:15:00
7:35 AM,42.3,28.4,58,30.06,10.0,NW,4.6,-,N/A,,Clear,310,2011-10-30 12:35:00
8:15 AM,39.2,26.8,61,30.07,10.0,WNW,5.8,-,N/A,,Clear,290,2011-10-30 13:15:00
8:35 AM,41.2,29.5,63,30.08,10.0,WNW,9.2,-,N/A,,Clear,290,2011-10-30 13:35:00
8:55 AM,47.8,32.4,55,30.09,10.0,WNW,10.4,-,N/A,,Clear,290,2011-10-30 13:55:00
9:15 AM,50.7,33.3,51,30.11,10.0,NW,4.6,-,N/A,,Clear,320,2011-10-30 14:15:00
9:35 AM,50.9,32.4,49,30.13,10.0,NNW,6.9,-,N/A,,Clear,340,2011-10-30 14:35:00
9:55 AM,52.0,32.2,47,30.14,10.0,NW,10.4,-,N/A,,Clear,320,2011-10-30 14:55:00
10:15 AM,54.9,33.1,44,30.15,10.0,NW,11.5,-,N/A,,Clear,310,2011-10-30 15:15:00
10:35 AM,58.8,34.0,39,30.15,10.0,WNW,16.1,-,N/A,,Clear,300,2011-10-30 15:35:00
10:55 AM,62.1,32.2,33,30.15,10.0,NW,17.3,24.2,N/A,,Clear,310,2011-10-30 15:55:00
11:15 AM,63.3,31.3,30,30.16,10.0,NW,18.4,-,N/A,,Clear,310,2011-10-30 16:15:00
11:35 AM,64.0,31.3,29,30.17,10.0,NW,17.3,-,N/A,,Clear,320,2011-10-30 16:35:00
11:55 AM,64.6,31.8,29,30.16,10.0,NW,15.0,-,N/A,,Clear,310,2011-10-30 16:55:00
12:35 PM,67.8,32.0,26,30.16,10.0,NW,13.8,17.3,N/A,,Clear,310,2011-10-30 17:35:00
12:55 PM,68.9,32.0,25,30.16,10.0,NNW,11.5,-,N/A,,Clear,340,2011-10-30 17:55:00
1:15 PM,69.8,32.4,25,30.15,10.0,NW,10.4,-,N/A,,Clear,320,2011-10-30 18:15:00
1:35 PM,70.9,32.4,24,30.15,10.0,NW,13.8,17.3,N/A,,Clear,320,2011-10-30 18:35:00
1:55 PM,71.8,32.9,24,30.14,10.0,NW,13.8,18.4,N/A,,Clear,310,2011-10-30 18:55:00
2:15 PM,73.0,32.7,23,30.13,10.0,NNW,15.0,20.7,N/A,,Clear,340,2011-10-30 19:15:00
2:35 PM,73.6,32.2,22,30.13,10.0,North,8.1,-,N/A,,Clear,10,2011-10-30 19:35:00
2:55 PM,73.9,32.2,22,30.12,10.0,NNW,8.1,-,N/A,,Clear,330,2011-10-30 19:55:00
3:35 PM,75.2,33.4,22,30.12,10.0,NNW,12.7,-,N/A,,Clear,330,2011-10-30 20:35:00
3:55 PM,75.7,32.7,21,30.11,10.0,NNW,5.8,17.3,N/A,,Clear,330,2011-10-30 20:55:00
4:15 PM,76.1,32.2,20,30.11,10.0,NW,8.1,17.3,N/A,,Clear,320,2011-10-30 21:15:00
4:35 PM,76.3,32.2,20,30.11,10.0,North,5.8,-,N/A,,Clear,350,2011-10-30 21:35:00
4:55 PM,76.5,32.0,20,30.11,10.0,NNW,6.9,-,N/A,,Clear,340,2011-10-30 21:55:00
5:15 PM,76.5,31.6,19,30.11,10.0,North,10.4,-,N/A,,Clear,350,2011-10-30 22:15:00
5:35 PM,76.5,31.3,19,30.11,10.0,North,12.7,-,N/A,,Clear,360,2011-10-30 22:35:00
6:15 PM,75.2,30.4,19,30.12,10.0,NNW,10.4,-,N/A,,Clear,330,2011-10-30 23:15:00
6:35 PM,74.3,29.5,19,30.12,10.0,NW,9.2,-,N/A,,Clear,320,2011-10-30 23:35:00
6:55 PM,72.0,29.7,21,30.13,10.0,WNW,9.2,-,N/A,,Clear,290,2011-10-30 23:55:00
7:15 PM,68.9,30.2,24,30.15,10.0,NW,10.4,-,N/A,,Clear,310,2011-10-31 00:15:00
7:35 PM,68.0,29.8,24,30.16,10.0,NNW,5.8,-,N/A,,Clear,340,2011-10-31 00:35:00
7:55 PM,66.2,29.3,25,30.16,10.0,WNW,5.8,-,N/A,,Clear,300,2011-10-31 00:55:00
8:15 PM,62.8,29.1,28,30.17,10.0,WNW,8.1,-,N/A,,Clear,300,2011-10-31 01:15:00
8:35 PM,61.0,28.9,30,30.18,10.0,NW,8.1,-,N/A,,Clear,310,2011-10-31 01:35:00
8:55 PM,60.1,28.6,30,30.19,10.0,NW,5.8,-,N/A,,Clear,310,2011-10-31 01:55:00
9:15 PM,58.5,28.4,32,30.20,10.0,NW,8.1,-,N/A,,Clear,310,2011-10-31 02:15:00
9:35 PM,57.7,28.2,32,30.20,10.0,NW,6.9,-,N/A,,Clear,310,2011-10-31 02:35:00
9:55 PM,56.1,28.8,35,30.21,10.0,NW,5.8,-,N/A,,Clear,310,2011-10-31 02:55:00
10:15 PM,55.2,29.3,37,30.22,10.0,West,3.5,-,N/A,,Clear,270,2011-10-31 03:15:00
10:35 PM,53.4,28.6,38,30.23,10.0,West,4.6,-,N/A,,Clear,280,2011-10-31 03:35:00
10:55 PM,51.6,28.4,41,30.23,10.0,WNW,5.8,-,N/A,,Clear,300,2011-10-31 03:55:00
11:15 PM,50.0,28.0,43,30.24,10.0,NW,6.9,-,N/A,,Clear,320,2011-10-31 04:15:00
11:35 PM,50.7,29.5,44,30.24,10.0,NW,4.6,-,N/A,,Clear,320,2011-10-31 04:35:00
11:55 PM,50.2,29.7,45,30.24,10.0,NNW,3.5,-,N/A,,Clear,330,2011-10-31 04:55:00